SCP
0 0 0 0 0 0 0 0 0 0 0 0 0 0 0 0 0 0 0 0 0 0 0 0 0 0 0 0 0 0 0 0 0 0 0 0 0 0 0 0 0 0 0 0 0 0 -0 0 0 0 0 0 0 0
0 0 0 0 0 0 0 0 0 0 0 0 0 0 0 0 0 0 0 0 0 0 0 0 0 -0 0 0 0 0 0 0 0 0 0 0 0 0 0 0 0 0 0 0 0 0 0 0 0 0 0 0 0 -0
0 0 0 0 0 0 0 0 0 0 0 0 0 0 0 0 0 0 0 0 0 0 0 0 0 0 0 0 0 0 0 0 0 0 0 0 0 0 0 0 0 0 0 0 0 0 0 0 0 0 0 -0 -0 -0
0 0 0 0 0 0 0 0 0 0 0 0 0 0 -0 0 0 0 0 0 0 0 0 0 0 0 0 0 0 0 0 0 0 0 0 0 0 0 0 0 0 0 0 0 0 0 0 0 0 -0 -0 0 -0 -0
0 0 0 0 0 0 0 0 0 0 0 0 0 0 0 0 0 0 0 0 0 0 0 0 -0 -0 0 0 0 0 0 0 0 0 0 0 0 0 0 0 0 0 0 0 0 0 0 0 -0 -0 -0 -0 -0 0
0 0 0 0 0 0 0 0 0 0 0 0 0 0 0 0 0 0 0 0 0 0 0 0 0 0 0 0 0 0 0 0 0 0 0 0 0 0 0 0 0 0 0 0 0 0 0 0 -0 -0 -0 -0 -0 0
0 0 0 -0 -0 -0 -0 0 0 0 0 0 0 0 0 0 0 0 0 0 0 0 0 0 0 0 0 0 0 0 0 0 0 0 0 0 0 0 0 0 0 0 0 0 0 0 0 0 -0 0 -0 -0 0 0
0 0 0 0 0 0 0 0 0 0 0 0 0 0 0 0 0 0 0 0 0 0 0 0 0 0 0 0 0 0 0 0 0 0 0 0 0 0 0 0 0 0 0 0 0 0 0 -0 -0 -0 -0 0 0 0
0 0 0 0 0 0 0 -0 0 0 0 0 0 0 0 0 0 0 0 0 0 0 0 0 0 0 0 0 0 0 0 0 0 0 0 0 0 0 0 0 0 0 0 0 0 0 0 0 0 -0 0 0 0 0
0 0 0 -0 0 0 0 0 0 0 0 -0 0 0 0 0 -0 0 0 0 0 0 0 0 0 0 0 0 0 0 0 0 0 0 -0 -0 -0 0 0 0 0 0 0 0 0 0 0 0 -0 0 0 0 0 0
-0 -0 -0 -0 -0 0 0 0 0 0 0 0 0 0 0 0 0 0 0 0 0 0 0 -0 -0 0 0 0 0 0 0 0 0 0 -0 -0 0 0 0 0 0 0 0 0 0 -0 -0 0 0 -0 0 0 0 0
-0 -0 -0 -0 -0 0 0 0 0 0 0 0 0 0 0 0 0 0 0 0 0 0 -0 -0 0 0 0 0 0 0 0 0 0 -0 -0 -0 0 0 0 0 0 0 0 0 -0 -0 0 0 0 0 0 0 0 0
-0 -0 -0 -0 -0 -0 -0 0 0 -0 0 0 0 0 0 0 0 0 -0 -0 -0 -0 0 0 0 0 0 0 0 0 0 0 0 -0 -0 0 0 0 0 0 0 0 0 -0 0 0 0 0 0 -0 0 0 0 0
-0 -0 -0 -0 -0 0 0 0 -0 0 0 0 0 0 0 -0 -0 -0 0 0 0 0 0 0 -0 -0 -0 0 0 0 0 0 -0 -0 0 0 0 0 0 0 0 0 0 0 0 0 0 0 -0 -0 -0 -0 0 0
-0 -0 -0 -0 0 0 0 -0 -0 0 0 0 0 0 0 0 -0 -0 0 -0 0 -0 0 0 0 0 0 0 0 0 0 -0 0 0 0 0 0 -0 -0 -0 -0 -0 -0 -0 -0 -0 -0 -0 -0 -0 -0 -0 -0 0
-0 -0 0 0 -0 0 0 0 0 0 0 0 0 0 0 -0 0 0 -0 0 0 -0 -0 0 0 0 0 0 0 0 0 0 -0 0 0 -0 -0 -0 -0 -0 -0 0 0 -0 -0 -0 -0 -0 -0 -0 0 0 -0 0
-0 0 0 -0 -0 -0 0 0 0 0 0 0 0 0 0 -0 0 0 0 0 0 0 -0 0 0 0 0 0 0 0 -0 -0 0 0 -0 -0 -0 -0 -0 -0 -0 -0 0 0 0 0 -0 -0 -0 -0 -0 -0 0 0
0 0 -0 0 0 0 0 0 0 0 0 0 0 0 0 0 -0 0 0 -0 -0 -0 0 0 0 0 0 0 0 -0 0 0 0 0 -0 -0 -0 -0 -0 -0 0 0 -0 0 0 -0 -0 -0 -0 0 0 0 -0 -0
0 0 0 -0 0 0 0 0 0 0 0 0 0 0 0 0 0 0 0 0 -0 0 0 0 0 0 0 0 -0 -0 0 0 0 0 -0 -0 -0 -0 -0 -0 0 0 0 -0 -0 -0 -0 -0 -0 -0 -0 -0 -0 -0
0 -0 -0 0 0 0 0 0 0 0 0 0 0 0 0 0 0 -0 0 0 -0 0 0 0 0 0 0 0 0 0 0 0 0 -0 -0 -0 -0 -0 -0 -0 0 0 0 0 -0 -0 -0 0 0 -0 -0 -0 -0 -0
0 0 0 0 0 0 0 0 0 0 0 0 0 0 0 0 -0 0 0 0 0 0 0 0 0 0 0 -0 0 0 -0 -0 0 -0 -0 -0 -0 -0 -0 -0 -0 -0 -0 -0 -0 -0 -0 -0 -0 -0 -0 -0 -0 -0
0 0 0 0 0 0 0 0 0 0 0 0 0 0 0 -0 -0 0 0 0 0 0 0 0 0 0 0 0 0 0 0 -0 -0 -0 -0 0 -0 -0 -0 -0 -0 -0 -0 -0 -0 -0 -0 0 0 0 0 0 0 0
0 0 0 0 0 0 0 0 0 0 0 0 0 0 -0 -0 0 0 0 0 0 0 0 0 0 0 0 0 0 0 0 -0 0 -0 -0 -0 -0 -0 -0 -0 -0 -0 -0 0 0 0 0 0 0 0 0 0 0 0
0 0 0 0 0 0 0 0 0 0 0 -0 -0 -0 -0 0 0 0 0 0 0 0 0 0 0 0 0 -0 0 0 0 0 0 0 0 -0 -0 -0 -0 -0 0 0 0 0 0 0 0 0 0 0 0 0 0 0
0 0 0 0 0 0 0 -0 -0 0 0 -0 0 -0 -0 0 0 0 0 0 0 0 0 0 0 0 -0 0 0 0 0 0 0 0 0 -0 -0 0 0 0 0 0 0 0 0 0 0 0 0 0 0 0 0 0
0 0 0 0 0 0 0 0 0 0 -0 -0 0 0 -0 0 0 0 0 0 0 0 0 0 0 0 0 0 0 0 0 0 0 -0 0 0 0 0 0 0 0 0 0 0 0 0 0 0 0 0 0 0 0 0
0 0 0 0 0 0 0 0 0 0 -0 -0 0 0 0 0 0 0 0 0 0 0 0 0 0 0 0 0 0 0 0 -0 -0 -0 0 0 0 0 0 0 0 0 0 0 0 0 0 0 0 0 0 0 0 0
0 0 0 -0 0 0 0 0 0 0 0 0 0 0 0 0 0 0 0 0 0 0 0 0 0 0 0 0 -0 -0 -0 -0 0 0 0 0 0 0 0 0 0 0 0 0 0 0 0 0 0 0 0 0 0 0
0 0 -0 0 -0 -0 0 0 0 0 0 0 0 0 0 0 0 0 0 0 0 0 0 0 0 0 -0 -0 -0 0 0 0 0 0 0 0 0 0 0 0 0 0 0 0 0 0 0 0 0 0 0 0 0 0
0 -0 -0 0 0 0 0 0 0 0 0 0 0 0 0 0 0 0 0 0 0 0 0 0 0 -0 -0 -0 0 0 0 0 0 0 0 0 0 0 0 0 0 0 0 0 0 0 0 0 0 0 0 0 0 0
0 0 0 0 0 0 0 0 0 0 0 0 0 0 0 0 0 0 0 0 0 0 0 -0 -0 0 0 0 0 0 0 0 0 0 0 0 0 0 0 0 0 0 0 0 0 0 0 0 0 0 0 0 0 0
0 -0 -0 0 0 0 0 0 0 0 0 0 0 0 0 0 0 0 0 0 0 0 0 0 0 0 0 0 0 0 0 0 0 0 0 0 0 0 0 0 0 0 0 0 0 0 0 0 0 0 0 0 0 0
0 0 0 0 0 0 0 0 0 0 0 0 0 0 0 0 0 0 0 0 0 0 0 0 0 0 0 0 0 0 0 0 0 0 0 0 0 0 0 0 0 0 0 0 0 0 0 0 0 0 0 0 0 0
Wind_Speed_500mb
40 40 40 40 39 36 36 35 33 29 25 28 28 27 24 19 15 16 13 13 8 11 28 22 25 22 15 11 9 11 8 3 3 6 6 4 8 8 9 16 11 17 8 9 14 12 10 28 21 15 19 34 43 50
38 38 38 37 38 35 33 33 31 28 28 25 25 24 22 20 16 18 20 17 19 18 19 28 36 38 32 23 13 10 4 4 4 4 1 7 6 8 15 7 3 6 12 8 8 6 8 14 3 11 23 35 43 49
39 38 37 36 35 34 32 31 28 28 26 24 23 26 20 17 19 22 26 21 18 13 35 18 7 14 18 30 29 12 9 5 5 2 1 4 11 14 8 8 6 6 9 9 6 9 9 15 13 35 38 41 47 53
38 40 37 36 34 35 33 29 27 26 26 24 20 24 27 23 26 24 28 24 14 6 6 5 7 0 12 21 29 30 17 4 4 3 1 6 9 16 9 14 17 19 9 13 19 26 23 23 42 44 46 46 52 54
35 36 34 34 32 31 29 26 26 28 27 27 24 28 32 29 21 32 34 29 24 6 6 20 34 16 28 25 27 29 29 15 9 4 5 8 23 15 16 19 17 18 7 5 5 19 19 31 40 41 47 48 52 58
37 39 35 34 33 34 37 30 28 26 23 19 20 24 29 22 22 24 23 33 36 23 4 7 4 9 19 25 20 22 39 25 12 7 8 14 30 6 7 5 9 7 11 12 11 20 25 32 36 38 41 46 51 56
37 35 33 33 34 33 31 28 25 21 18 19 23 23 33 18 14 30 10 4 18 25 6 9 4 14 24 23 11 7 18 11 12 6 11 23 26 11 6 16 8 2 11 15 16 18 29 31 36 37 41 47 52 51
35 34 35 32 33 34 29 25 22 17 17 18 17 16 26 18 24 29 21 13 15 12 6 5 8 14 30 14 11 13 12 11 14 8 9 12 10 12 8 9 13 11 15 15 19 22 22 29 32 37 41 48 53 58
35 34 32 31 32 31 28 23 22 18 19 17 16 18 15 21 17 16 21 23 22 9 5 7 7 2 16 8 9 12 14 5 13 6 7 3 7 9 4 12 6 13 12 20 20 21 26 30 35 39 43 49 54 64
34 35 33 30 28 28 21 19 19 19 18 7 14 10 6 9 15 30 19 16 12 7 9 8 22 9 6 10 6 9 9 4 5 10 10 6 10 13 5 10 13 11 14 17 22 26 31 33 35 39 42 44 51 59
33 29 28 27 25 26 17 15 10 10 8 23 7 6 16 40 13 6 7 9 11 9 13 15 21 11 4 3 3 9 2 3 5 7 8 7 6 10 10 11 10 8 12 16 17 20 24 26 31 35 39 43 51 68
33 30 29 28 24 22 16 11 9 11 9 9 5 20 25 9 5 5 7 8 9 6 14 9 4 1 5 2 2 4 4 5 8 16 8 4 8 15 13 7 3 11 14 16 18 19 21 25 26 30 34 39 48 61
31 26 26 26 20 20 14 17 18 18 23 9 6 7 8 7 6 10 13 9 8 9 9 9 4 4 4 4 3 5 9 9 12 7 4 6 19 13 7 4 10 13 15 18 18 20 20 20 25 29 33 37 45 49
23 20 21 24 24 14 15 16 11 13 7 6 8 8 8 8 11 11 3 6 8 10 11 12 7 6 8 7 6 7 8 7 6 5 5 11 15 15 13 11 13 16 18 18 21 20 21 23 26 28 34 37 45 49
23 25 21 19 17 16 12 20 17 13 5 4 6 8 14 15 12 12 13 16 15 14 14 7 5 12 7 8 8 6 6 7 8 5 8 16 19 17 16 14 15 17 18 21 21 23 24 25 27 29 35 36 39 57
19 18 18 15 17 18 18 20 31 25 4 5 8 10 16 14 11 13 14 21 15 13 8 3 4 5 8 6 6 5 6 7 7 9 24 21 21 20 17 16 17 18 19 22 23 23 25 28 29 31 35 39 38 49
12 18 13 10 16 17 27 26 18 11 7 6 12 21 20 6 15 7 17 17 11 11 4 4 5 8 4 6 6 2 5 14 28 30 30 26 23 20 19 19 18 18 18 20 21 25 26 26 29 34 39 42 39 51
19 12 10 20 22 27 33 17 11 9 10 16 13 10 15 3 5 11 16 14 6 8 4 4 6 7 4 5 8 13 29 30 30 33 28 23 21 20 19 19 18 18 20 19 20 22 26 29 33 36 37 41 39 50
17 14 18 24 32 21 10 9 7 7 17 15 20 12 2 3 9 12 16 9 5 9 7 7 7 5 2 6 20 28 28 31 30 30 28 23 20 20 19 17 15 16 15 19 23 23 25 29 30 34 36 40 41 48
15 17 22 30 31 6 6 6 10 8 7 9 11 7 1 6 8 9 11 8 5 3 7 5 1 1 7 3 11 29 32 30 28 29 26 22 19 18 16 14 13 13 14 13 19 25 24 26 29 32 36 39 42 44
23 18 24 28 28 1 4 6 9 8 10 6 2 2 4 2 6 4 8 6 3 5 4 5 4 8 15 20 23 25 25 24 27 25 25 24 19 17 16 14 14 15 15 17 19 22 26 29 31 32 34 37 40 39
25 28 28 24 5 3 5 8 5 3 6 5 2 2 2 3 2 4 8 4 5 11 3 2 9 19 21 22 25 30 30 33 32 28 25 23 21 19 16 15 15 17 17 19 19 21 24 27 33 30 34 36 36 37
31 24 13 6 6 9 9 7 8 6 3 3 2 2 3 3 5 12 3 6 9 8 11 9 18 19 27 25 25 24 26 28 27 24 21 21 20 19 19 18 17 17 19 19 20 22 24 26 28 30 31 33 36 36
19 9 7 10 12 7 9 9 4 3 4 4 4 4 5 6 10 3 3 4 11 16 17 23 25 25 25 25 26 26 24 24 23 21 18 19 19 18 18 19 19 20 19 19 21 22 24 25 28 29 30 32 36 35
9 10 7 7 10 8 8 10 10 6 7 11 8 5 7 10 6 5 5 11 20 21 24 21 23 24 25 26 24 24 19 20 21 19 15 15 15 14 13 13 18 22 22 21 24 24 25 26 27 29 29 31 35 35
7 11 10 12 6 7 8 8 9 14 9 8 4 5 12 6 5 3 3 16 21 23 22 21 21 23 27 26 23 20 17 20 18 19 16 14 13 12 10 15 14 19 20 20 20 21 23 24 25 27 27 29 33 34
5 11 13 13 9 9 7 8 5 4 8 7 5 8 6 5 5 5 7 10 22 21 17 16 18 23 23 24 23 21 20 21 23 22 16 16 17 18 19 17 15 13 16 21 22 23 23 23 24 26 27 27 29 32
7 6 9 17 11 3 2 5 4 1 4 4 4 2 3 5 4 4 8 20 20 18 17 18 18 26 31 29 24 22 19 20 22 21 20 19 19 18 18 18 22 19 11 21 22 23 24 20 22 23 27 27 28 30
9 8 7 11 5 1 5 5 7 8 5 8 1 5 6 5 21 10 8 13 19 21 22 26 27 27 27 25 22 19 17 16 14 13 10 14 15 12 10 9 11 11 12 16 23 24 28 21 24 25 25 25 27 26
8 8 7 7 5 3 4 2 5 2 11 9 11 15 16 11 6 15 9 16 20 21 21 23 24 26 28 26 26 21 14 10 7 8 14 17 12 7 6 7 8 9 10 10 10 15 18 18 18 19 23 23 28 27
11 7 4 8 5 4 4 6 8 11 13 19 14 20 17 14 15 11 13 17 18 20 24 28 27 26 28 24 21 20 17 15 18 21 18 16 13 9 9 10 9 11 12 13 14 17 16 15 17 19 23 25 28 29
7 9 10 6 5 10 9 3 5 6 5 7 7 12 17 10 6 11 22 20 18 28 26 26 27 23 21 21 21 29 28 24 22 21 16 15 14 12 10 9 10 10 10 11 12 15 18 19 20 21 22 25 28 30
4 8 15 11 8 9 11 11 7 7 6 5 4 5 7 8 8 18 22 20 14 26 28 30 30 29 31 33 35 30 25 16 14 12 10 9 8 19 14 11 11 10 9 8 10 11 17 25 25 26 26 27 28 29
Wind_Direction_500mb
300 298 299 296 294 294 294 292 289 287 286 278 271 271 290 248 240 242 252 255 249 275 286 294 269 254 247 259 254 0 257 243 154 229 232 288 284 288 279 153 189 184 214 205 227 232 247 5 352 345 355 336 338 332
310 302 295 296 297 294 292 290 289 284 282 285 269 260 279 244 232 231 251 255 256 271 263 281 272 259 247 244 232 240 60 258 132 226 244 300 311 310 322 290 29 228 206 179 210 286 58 260 132 18 350 340 331 325
316 315 308 299 296 295 291 288 288 286 284 284 276 251 263 249 233 231 242 263 274 288 304 255 259 293 222 225 217 227 224 256 214 89 95 286 273 288 290 301 308 264 49 255 271 63 347 301 5 357 346 336 331 326
313 310 309 305 295 289 290 290 288 287 282 284 278 254 249 260 247 240 239 260 254 266 283 334 217 43 225 196 200 214 232 221 106 59 104 259 249 281 297 286 276 269 251 279 265 55 315 346 350 343 334 336 329 327
305 311 311 309 306 299 293 289 286 287 284 287 284 262 246 251 258 223 246 249 240 240 294 287 300 285 221 200 201 213 223 221 199 199 238 248 266 307 288 279 284 351 343 358 336 10 349 337 327 334 337 334 333 333
302 302 304 309 308 298 281 278 283 282 279 281 284 276 234 244 237 219 221 250 239 228 290 296 278 210 169 190 222 225 223 209 170 179 241 253 264 253 286 281 58 357 49 45 30 4 333 311 333 338 340 336 335 334
285 289 294 301 305 303 287 279 276 272 281 284 291 275 229 229 252 204 196 182 193 202 220 273 185 162 164 158 153 178 208 194 190 214 238 260 275 263 269 267 98 323 50 23 7 325 330 338 340 343 343 338 340 337
283 285 292 295 303 302 293 277 267 262 270 287 289 256 224 256 228 205 170 145 161 170 234 268 275 171 182 183 142 175 158 165 197 228 249 256 278 223 254 4 101 54 17 359 340 345 343 343 342 346 345 344 344 344
287 278 289 295 301 301 294 269 258 257 269 283 268 241 247 232 209 197 197 185 185 184 244 229 258 317 172 140 143 170 173 172 199 220 243 261 253 229 258 119 50 43 358 352 351 354 353 350 352 352 353 352 352 344
288 278 280 289 297 293 297 268 262 265 277 267 231 204 187 177 168 144 148 180 201 229 232 266 243 249 252 160 139 149 200 219 214 208 174 221 257 258 133 71 51 16 8 3 355 355 354 355 359 359 360 360 354 352
291 282 269 284 293 289 290 267 262 268 274 160 184 152 140 149 134 142 150 191 173 220 208 238 233 222 315 233 128 209 194 246 236 180 212 213 188 132 101 77 44 7 16 4 359 356 358 6 7 4 5 4 -0 1
294 278 264 271 283 289 281 229 243 227 221 204 163 128 153 186 188 191 199 184 214 245 183 216 142 118 78 40 168 208 250 229 256 179 223 207 103 117 99 74 26 34 19 12 9 8 18 21 18 17 12 7 4 8
295 282 268 261 276 279 267 233 241 222 188 223 160 146 174 166 199 223 191 187 191 206 149 124 118 119 146 136 188 237 227 228 170 216 162 84 117 112 120 92 64 41 28 24 24 30 32 33 29 21 13 10 8 9
290 284 263 259 253 267 275 196 198 205 213 185 188 177 219 192 228 216 54 88 102 133 132 130 140 167 186 179 229 242 239 214 233 198 75 130 139 120 98 70 64 47 38 37 45 43 44 38 27 20 15 6 6 13
273 272 254 252 246 227 211 198 190 203 213 231 226 233 218 226 250 128 125 116 125 143 146 163 178 192 186 237 216 233 241 216 68 59 109 128 114 104 87 75 67 55 55 54 52 48 42 33 26 21 15 10 6 14
287 265 260 249 237 222 210 183 193 197 254 253 239 265 248 275 235 166 173 118 123 129 133 204 232 213 225 246 240 242 343 71 115 134 140 132 110 101 98 86 73 71 70 63 54 46 39 33 26 21 16 14 14 10
263 246 260 224 194 189 168 175 172 187 225 244 247 245 259 138 267 33 97 122 135 143 180 208 249 230 232 225 213 218 77 125 128 122 114 115 116 112 105 94 84 79 71 59 51 44 38 31 26 23 18 11 16 15
233 236 242 179 169 168 179 188 175 201 242 243 259 307 231 268 116 122 119 134 126 155 181 242 283 253 277 319 94 122 114 105 109 111 115 115 113 111 107 100 91 78 64 54 44 40 33 29 25 20 14 11 15 15
226 211 177 179 178 167 153 190 194 245 236 259 245 245 261 196 111 109 120 118 116 175 300 251 254 308 31 68 127 123 122 121 119 112 112 115 116 113 110 103 91 76 65 53 44 36 32 27 23 18 14 13 14 15
172 175 172 185 183 141 145 187 203 257 270 258 240 245 291 117 82 133 138 118 99 148 248 234 43 318 90 96 109 117 114 118 124 127 126 122 116 112 105 102 89 74 61 59 43 37 31 25 23 17 15 15 14 16
160 154 170 184 186 216 262 173 215 255 308 300 13 142 99 123 190 158 100 95 104 259 296 60 199 138 90 79 92 109 122 134 133 131 129 126 119 114 107 102 89 70 56 44 35 30 27 22 14 15 13 13 13 14
156 156 166 187 175 259 256 230 258 272 252 273 300 221 223 193 184 141 149 140 227 257 240 179 181 118 104 105 112 107 97 96 100 105 107 125 117 102 86 76 74 71 55 40 32 26 24 18 14 14 11 10 12 11
159 170 153 153 180 201 267 222 217 219 264 158 94 289 164 129 136 151 214 219 240 197 220 169 121 119 113 113 114 110 117 118 115 114 108 102 98 90 81 71 63 52 44 37 30 26 21 16 13 14 11 9 10 10
164 152 197 200 196 220 185 192 219 210 259 151 204 187 145 144 164 239 264 249 182 190 159 136 128 124 123 131 125 129 125 113 112 109 108 106 97 86 82 75 64 52 40 32 26 21 15 12 9 10 9 9 10 11
162 204 202 253 218 211 197 177 182 182 253 195 205 146 179 165 193 204 202 186 172 154 150 150 143 141 147 130 138 126 125 127 116 102 93 99 105 102 92 84 68 49 35 29 20 15 10 8 7 7 8 9 10 10
219 195 201 208 209 217 216 189 203 208 210 191 154 173 177 197 218 120 85 165 149 154 152 151 154 149 137 137 124 138 134 120 117 105 86 83 68 64 70 106 81 45 34 27 17 13 10 8 6 7 8 7 6 8
227 225 202 218 234 239 242 224 231 160 194 182 161 177 189 195 81 51 62 146 138 146 146 151 156 146 142 143 137 113 107 105 110 106 96 83 73 65 72 81 85 54 32 34 23 17 15 11 11 11 10 8 7 8
265 243 207 199 206 242 329 290 237 237 124 178 239 110 59 48 113 151 78 143 148 147 137 130 134 137 132 131 132 120 108 109 108 109 103 87 78 73 69 61 38 36 23 13 22 15 18 20 19 17 16 11 8 11
235 227 176 163 172 194 69 6 9 11 14 351 315 90 98 106 112 90 114 134 134 129 131 135 124 126 127 127 127 134 136 139 139 149 137 127 111 71 64 48 34 23 17 350 1 20 21 26 24 26 19 12 10 14
223 200 185 134 112 79 75 22 24 341 70 51 111 109 112 113 104 112 135 148 152 153 149 149 148 149 145 145 138 127 120 112 122 152 131 119 109 95 66 41 32 25 28 32 21 13 21 30 22 21 22 18 16 20
159 159 143 77 88 105 122 123 108 100 94 55 104 131 133 137 128 98 123 151 160 161 153 154 156 153 148 145 147 143 121 112 107 110 115 110 108 94 79 65 51 56 52 55 46 38 43 33 35 33 29 26 22 22
167 202 161 130 127 146 128 105 90 84 84 70 71 123 134 117 96 147 154 149 152 160 162 161 152 145 146 141 135 143 143 134 126 120 112 114 102 89 81 75 66 64 51 38 39 35 36 35 33 30 26 21 18 19
125 121 112 112 135 182 184 181 141 117 112 114 114 113 100 125 140 165 158 131 136 157 147 139 135 135 140 151 157 164 173 161 152 164 178 183 166 141 114 89 70 80 78 69 56 37 19 18 22 21 20 18 17 17
Wind_Speed_850mb
40 40 40 40 39 36 36 35 33 29 25 28 28 27 24 19 15 16 13 13 8 11 28 22 25 22 15 11 9 11 8 3 3 6 6 4 8 8 9 16 11 17 8 9 14 12 10 28 21 15 19 34 43 50
38 38 38 37 38 35 33 33 31 28 28 25 25 24 22 20 16 18 20 17 19 18 19 28 36 38 32 23 13 10 4 4 4 4 1 7 6 8 15 7 3 6 12 8 8 6 8 14 3 11 23 35 43 49
39 38 37 36 35 34 32 31 28 28 26 24 23 26 20 17 19 22 26 21 18 13 35 18 7 14 18 30 29 12 9 5 5 2 1 4 11 14 8 8 6 6 9 9 6 9 9 15 13 35 38 41 47 53
38 40 37 36 34 35 33 29 27 26 26 24 20 24 27 23 26 24 28 24 14 6 6 5 7 0 12 21 29 30 17 4 4 3 1 6 9 16 9 14 17 19 9 13 19 26 23 23 42 44 46 46 52 54
35 36 34 34 32 31 29 26 26 28 27 27 24 28 32 29 21 32 34 29 24 6 6 20 34 16 28 25 27 29 29 15 9 4 5 8 23 15 16 19 17 18 7 5 5 19 19 31 40 41 47 48 52 58
37 39 35 34 33 34 37 30 28 26 23 19 20 24 29 22 22 24 23 33 36 23 4 7 4 9 19 25 20 22 39 25 12 7 8 14 30 6 7 5 9 7 11 12 11 20 25 32 36 38 41 46 51 56
37 35 33 33 34 33 31 28 25 21 18 19 23 23 33 18 14 30 10 4 18 25 6 9 4 14 24 23 11 7 18 11 12 6 11 23 26 11 6 16 8 2 11 15 16 18 29 31 36 37 41 47 52 51
35 34 35 32 33 34 29 25 22 17 17 18 17 16 26 18 24 29 21 13 15 12 6 5 8 14 30 14 11 13 12 11 14 8 9 12 10 12 8 9 13 11 15 15 19 22 22 29 32 37 41 48 53 58
35 34 32 31 32 31 28 23 22 18 19 17 16 18 15 21 17 16 21 23 22 9 5 7 7 2 16 8 9 12 14 5 13 6 7 3 7 9 4 12 6 13 12 20 20 21 26 30 35 39 43 49 54 64
34 35 33 30 28 28 21 19 19 19 18 7 14 10 6 9 15 30 19 16 12 7 9 8 22 9 6 10 6 9 9 4 5 10 10 6 10 13 5 10 13 11 14 17 22 26 31 33 35 39 42 44 51 59
33 29 28 27 25 26 17 15 10 10 8 23 7 6 16 40 13 6 7 9 11 9 13 15 21 11 4 3 3 9 2 3 5 7 8 7 6 10 10 11 10 8 12 16 17 20 24 26 31 35 39 43 51 68
33 30 29 28 24 22 16 11 9 11 9 9 5 20 25 9 5 5 7 8 9 6 14 9 4 1 5 2 2 4 4 5 8 16 8 4 8 15 13 7 3 11 14 16 18 19 21 25 26 30 34 39 48 61
31 26 26 26 20 20 14 17 18 18 23 9 6 7 8 7 6 10 13 9 8 9 9 9 4 4 4 4 3 5 9 9 12 7 4 6 19 13 7 4 10 13 15 18 18 20 20 20 25 29 33 37 45 49
23 20 21 24 24 14 15 16 11 13 7 6 8 8 8 8 11 11 3 6 8 10 11 12 7 6 8 7 6 7 8 7 6 5 5 11 15 15 13 11 13 16 18 18 21 20 21 23 26 28 34 37 45 49
23 25 21 19 17 16 12 20 17 13 5 4 6 8 14 15 12 12 13 16 15 14 14 7 5 12 7 8 8 6 6 7 8 5 8 16 19 17 16 14 15 17 18 21 21 23 24 25 27 29 35 36 39 57
19 18 18 15 17 18 18 20 31 25 4 5 8 10 16 14 11 13 14 21 15 13 8 3 4 5 8 6 6 5 6 7 7 9 24 21 21 20 17 16 17 18 19 22 23 23 25 28 29 31 35 39 38 49
12 18 13 10 16 17 27 26 18 11 7 6 12 21 20 6 15 7 17 17 11 11 4 4 5 8 4 6 6 2 5 14 28 30 30 26 23 20 19 19 18 18 18 20 21 25 26 26 29 34 39 42 39 51
19 12 10 20 22 27 33 17 11 9 10 16 13 10 15 3 5 11 16 14 6 8 4 4 6 7 4 5 8 13 29 30 30 33 28 23 21 20 19 19 18 18 20 19 20 22 26 29 33 36 37 41 39 50
17 14 18 24 32 21 10 9 7 7 17 15 20 12 2 3 9 12 16 9 5 9 7 7 7 5 2 6 20 28 28 31 30 30 28 23 20 20 19 17 15 16 15 19 23 23 25 29 30 34 36 40 41 48
15 17 22 30 31 6 6 6 10 8 7 9 11 7 1 6 8 9 11 8 5 3 7 5 1 1 7 3 11 29 32 30 28 29 26 22 19 18 16 14 13 13 14 13 19 25 24 26 29 32 36 39 42 44
23 18 24 28 28 1 4 6 9 8 10 6 2 2 4 2 6 4 8 6 3 5 4 5 4 8 15 20 23 25 25 24 27 25 25 24 19 17 16 14 14 15 15 17 19 22 26 29 31 32 34 37 40 39
25 28 28 24 5 3 5 8 5 3 6 5 2 2 2 3 2 4 8 4 5 11 3 2 9 19 21 22 25 30 30 33 32 28 25 23 21 19 16 15 15 17 17 19 19 21 24 27 33 30 34 36 36 37
31 24 13 6 6 9 9 7 8 6 3 3 2 2 3 3 5 12 3 6 9 8 11 9 18 19 27 25 25 24 26 28 27 24 21 21 20 19 19 18 17 17 19 19 20 22 24 26 28 30 31 33 36 36
19 9 7 10 12 7 9 9 4 3 4 4 4 4 5 6 10 3 3 4 11 16 17 23 25 25 25 25 26 26 24 24 23 21 18 19 19 18 18 19 19 20 19 19 21 22 24 25 28 29 30 32 36 35
9 10 7 7 10 8 8 10 10 6 7 11 8 5 7 10 6 5 5 11 20 21 24 21 23 24 25 26 24 24 19 20 21 19 15 15 15 14 13 13 18 22 22 21 24 24 25 26 27 29 29 31 35 35
7 11 10 12 6 7 8 8 9 14 9 8 4 5 12 6 5 3 3 16 21 23 22 21 21 23 27 26 23 20 17 20 18 19 16 14 13 12 10 15 14 19 20 20 20 21 23 24 25 27 27 29 33 34
5 11 13 13 9 9 7 8 5 4 8 7 5 8 6 5 5 5 7 10 22 21 17 16 18 23 23 24 23 21 20 21 23 22 16 16 17 18 19 17 15 13 16 21 22 23 23 23 24 26 27 27 29 32
7 6 9 17 11 3 2 5 4 1 4 4 4 2 3 5 4 4 8 20 20 18 17 18 18 26 31 29 24 22 19 20 22 21 20 19 19 18 18 18 22 19 11 21 22 23 24 20 22 23 27 27 28 30
9 8 7 11 5 1 5 5 7 8 5 8 1 5 6 5 21 10 8 13 19 21 22 26 27 27 27 25 22 19 17 16 14 13 10 14 15 12 10 9 11 11 12 16 23 24 28 21 24 25 25 25 27 26
8 8 7 7 5 3 4 2 5 2 11 9 11 15 16 11 6 15 9 16 20 21 21 23 24 26 28 26 26 21 14 10 7 8 14 17 12 7 6 7 8 9 10 10 10 15 18 18 18 19 23 23 28 27
11 7 4 8 5 4 4 6 8 11 13 19 14 20 17 14 15 11 13 17 18 20 24 28 27 26 28 24 21 20 17 15 18 21 18 16 13 9 9 10 9 11 12 13 14 17 16 15 17 19 23 25 28 29
7 9 10 6 5 10 9 3 5 6 5 7 7 12 17 10 6 11 22 20 18 28 26 26 27 23 21 21 21 29 28 24 22 21 16 15 14 12 10 9 10 10 10 11 12 15 18 19 20 21 22 25 28 30
4 8 15 11 8 9 11 11 7 7 6 5 4 5 7 8 8 18 22 20 14 26 28 30 30 29 31 33 35 30 25 16 14 12 10 9 8 19 14 11 11 10 9 8 10 11 17 25 25 26 26 27 28 29
Wind_Direction_850mb
300 298 299 296 294 294 294 292 289 287 286 278 271 271 290 248 240 242 252 255 249 275 286 294 269 254 247 259 254 0 257 243 154 229 232 288 284 288 279 153 189 184 214 205 227 232 247 5 352 345 355 336 338 332
310 302 295 296 297 294 292 290 289 284 282 285 269 260 279 244 232 231 251 255 256 271 263 281 272 259 247 244 232 240 60 258 132 226 244 300 311 310 322 290 29 228 206 179 210 286 58 260 132 18 350 340 331 325
316 315 308 299 296 295 291 288 288 286 284 284 276 251 263 249 233 231 242 263 274 288 304 255 259 293 222 225 217 227 224 256 214 89 95 286 273 288 290 301 308 264 49 255 271 63 347 301 5 357 346 336 331 326
313 310 309 305 295 289 290 290 288 287 282 284 278 254 249 260 247 240 239 260 254 266 283 334 217 43 225 196 200 214 232 221 106 59 104 259 249 281 297 286 276 269 251 279 265 55 315 346 350 343 334 336 329 327
305 311 311 309 306 299 293 289 286 287 284 287 284 262 246 251 258 223 246 249 240 240 294 287 300 285 221 200 201 213 223 221 199 199 238 248 266 307 288 279 284 351 343 358 336 10 349 337 327 334 337 334 333 333
302 302 304 309 308 298 281 278 283 282 279 281 284 276 234 244 237 219 221 250 239 228 290 296 278 210 169 190 222 225 223 209 170 179 241 253 264 253 286 281 58 357 49 45 30 4 333 311 333 338 340 336 335 334
285 289 294 301 305 303 287 279 276 272 281 284 291 275 229 229 252 204 196 182 193 202 220 273 185 162 164 158 153 178 208 194 190 214 238 260 275 263 269 267 98 323 50 23 7 325 330 338 340 343 343 338 340 337
283 285 292 295 303 302 293 277 267 262 270 287 289 256 224 256 228 205 170 145 161 170 234 268 275 171 182 183 142 175 158 165 197 228 249 256 278 223 254 4 101 54 17 359 340 345 343 343 342 346 345 344 344 344
287 278 289 295 301 301 294 269 258 257 269 283 268 241 247 232 209 197 197 185 185 184 244 229 258 317 172 140 143 170 173 172 199 220 243 261 253 229 258 119 50 43 358 352 351 354 353 350 352 352 353 352 352 344
288 278 280 289 297 293 297 268 262 265 277 267 231 204 187 177 168 144 148 180 201 229 232 266 243 249 252 160 139 149 200 219 214 208 174 221 257 258 133 71 51 16 8 3 355 355 354 355 359 359 360 360 354 352
291 282 269 284 293 289 290 267 262 268 274 160 184 152 140 149 134 142 150 191 173 220 208 238 233 222 315 233 128 209 194 246 236 180 212 213 188 132 101 77 44 7 16 4 359 356 358 6 7 4 5 4 -0 1
294 278 264 271 283 289 281 229 243 227 221 204 163 128 153 186 188 191 199 184 214 245 183 216 142 118 78 40 168 208 250 229 256 179 223 207 103 117 99 74 26 34 19 12 9 8 18 21 18 17 12 7 4 8
295 282 268 261 276 279 267 233 241 222 188 223 160 146 174 166 199 223 191 187 191 206 149 124 118 119 146 136 188 237 227 228 170 216 162 84 117 112 120 92 64 41 28 24 24 30 32 33 29 21 13 10 8 9
290 284 263 259 253 267 275 196 198 205 213 185 188 177 219 192 228 216 54 88 102 133 132 130 140 167 186 179 229 242 239 214 233 198 75 130 139 120 98 70 64 47 38 37 45 43 44 38 27 20 15 6 6 13
273 272 254 252 246 227 211 198 190 203 213 231 226 233 218 226 250 128 125 116 125 143 146 163 178 192 186 237 216 233 241 216 68 59 109 128 114 104 87 75 67 55 55 54 52 48 42 33 26 21 15 10 6 14
287 265 260 249 237 222 210 183 193 197 254 253 239 265 248 275 235 166 173 118 123 129 133 204 232 213 225 246 240 242 343 71 115 134 140 132 110 101 98 86 73 71 70 63 54 46 39 33 26 21 16 14 14 10
263 246 260 224 194 189 168 175 172 187 225 244 247 245 259 138 267 33 97 122 135 143 180 208 249 230 232 225 213 218 77 125 128 122 114 115 116 112 105 94 84 79 71 59 51 44 38 31 26 23 18 11 16 15
233 236 242 179 169 168 179 188 175 201 242 243 259 307 231 268 116 122 119 134 126 155 181 242 283 253 277 319 94 122 114 105 109 111 115 115 113 111 107 100 91 78 64 54 44 40 33 29 25 20 14 11 15 15
226 211 177 179 178 167 153 190 194 245 236 259 245 245 261 196 111 109 120 118 116 175 300 251 254 308 31 68 127 123 122 121 119 112 112 115 116 113 110 103 91 76 65 53 44 36 32 27 23 18 14 13 14 15
172 175 172 185 183 141 145 187 203 257 270 258 240 245 291 117 82 133 138 118 99 148 248 234 43 318 90 96 109 117 114 118 124 127 126 122 116 112 105 102 89 74 61 59 43 37 31 25 23 17 15 15 14 16
160 154 170 184 186 216 262 173 215 255 308 300 13 142 99 123 190 158 100 95 104 259 296 60 199 138 90 79 92 109 122 134 133 131 129 126 119 114 107 102 89 70 56 44 35 30 27 22 14 15 13 13 13 14
156 156 166 187 175 259 256 230 258 272 252 273 300 221 223 193 184 141 149 140 227 257 240 179 181 118 104 105 112 107 97 96 100 105 107 125 117 102 86 76 74 71 55 40 32 26 24 18 14 14 11 10 12 11
159 170 153 153 180 201 267 222 217 219 264 158 94 289 164 129 136 151 214 219 240 197 220 169 121 119 113 113 114 110 117 118 115 114 108 102 98 90 81 71 63 52 44 37 30 26 21 16 13 14 11 9 10 10
164 152 197 200 196 220 185 192 219 210 259 151 204 187 145 144 164 239 264 249 182 190 159 136 128 124 123 131 125 129 125 113 112 109 108 106 97 86 82 75 64 52 40 32 26 21 15 12 9 10 9 9 10 11
162 204 202 253 218 211 197 177 182 182 253 195 205 146 179 165 193 204 202 186 172 154 150 150 143 141 147 130 138 126 125 127 116 102 93 99 105 102 92 84 68 49 35 29 20 15 10 8 7 7 8 9 10 10
219 195 201 208 209 217 216 189 203 208 210 191 154 173 177 197 218 120 85 165 149 154 152 151 154 149 137 137 124 138 134 120 117 105 86 83 68 64 70 106 81 45 34 27 17 13 10 8 6 7 8 7 6 8
227 225 202 218 234 239 242 224 231 160 194 182 161 177 189 195 81 51 62 146 138 146 146 151 156 146 142 143 137 113 107 105 110 106 96 83 73 65 72 81 85 54 32 34 23 17 15 11 11 11 10 8 7 8
265 243 207 199 206 242 329 290 237 237 124 178 239 110 59 48 113 151 78 143 148 147 137 130 134 137 132 131 132 120 108 109 108 109 103 87 78 73 69 61 38 36 23 13 22 15 18 20 19 17 16 11 8 11
235 227 176 163 172 194 69 6 9 11 14 351 315 90 98 106 112 90 114 134 134 129 131 135 124 126 127 127 127 134 136 139 139 149 137 127 111 71 64 48 34 23 17 350 1 20 21 26 24 26 19 12 10 14
223 200 185 134 112 79 75 22 24 341 70 51 111 109 112 113 104 112 135 148 152 153 149 149 148 149 145 145 138 127 120 112 122 152 131 119 109 95 66 41 32 25 28 32 21 13 21 30 22 21 22 18 16 20
159 159 143 77 88 105 122 123 108 100 94 55 104 131 133 137 128 98 123 151 160 161 153 154 156 153 148 145 147 143 121 112 107 110 115 110 108 94 79 65 51 56 52 55 46 38 43 33 35 33 29 26 22 22
167 202 161 130 127 146 128 105 90 84 84 70 71 123 134 117 96 147 154 149 152 160 162 161 152 145 146 141 135 143 143 134 126 120 112 114 102 89 81 75 66 64 51 38 39 35 36 35 33 30 26 21 18 19
125 121 112 112 135 182 184 181 141 117 112 114 114 113 100 125 140 165 158 131 136 157 147 139 135 135 140 151 157 164 173 161 152 164 178 183 166 141 114 89 70 80 78 69 56 37 19 18 22 21 20 18 17 17